カタログに戻る

YAOGAN-30 L

運用中軍事VLEO
NORAD 43171·PAYLOAD·🇨🇳 China

打ち上げ Jan 25, 2018 から Xichang Satellite Launch Center

Loading…

次のパス (今後24時間)

TLE

最新Source: Space-Track

元期: Sep 14, 2026, 15:34 UTC

1 43171U 18011C   26257.64902368  .00001972  00000-0  14575-3 0  9991
2 43171  34.9962 325.3033 0001297  27.4964 332.5813 15.03003690471689

AllMySatでYAOGAN-30 Lをリアルタイム追跡

Download on the App Store